contact:dominique.lefevre@mio.osupytheas.fr, maurice.libes@osupytheas.fr
Project:EMSO Ligure-ouest http://www.emso-fr.org/EMSO-France
Sensor Aquadopp, line 13 Serial AQD14315 
DOI : "https://doi.org/10.17882/74513; https://doi.org/10.17882/83244" 
Title:EMSO Ligure Ouest : Data ligne ALBATROSS capteur AQUADOPP - deploiement 2021
Id,Date,Profondeur,Latitude,Longitude,X_East,Y_North,Z_Up,Amplitude_X,Amplitude_Y,Amplitude_Z,Batterie,SoundSpeed,Heading,Pitch,Roll,Pressure,Temperature,Speed,Direction
, , m, degrees North, degrees East, m.s-1, m.s-1,m.s-1, 1, 1, 1, Volt, m.s-1, degree, degree, degree, dbar, degree_C, m.s-1, degree
11,2022-04-30T22:00:00,2200.0,42.79,6.0312,0.029,-0.006,0.003,49.0,51.0,53.0,11.9,1504.2,237.3,-0.6,0.3,2192.809,13.16,0.029,101.7
11,2022-04-30T22:30:00,2200.0,42.79,6.0312,0.03,-0.004,0.014,49.0,52.0,53.0,11.9,1504.2,237.4,-0.3,0.3,2192.825,13.16,0.03,97.6
11,2022-04-30T23:00:00,2200.0,42.79,6.0312,0.023,-0.007,0.008,49.0,51.0,57.0,12.0,1504.2,235.1,-0.2,0.1,2192.766,13.16,0.024,106.9
11,2022-04-30T23:30:00,2200.0,42.79,6.0312,0.034,-0.007,0.01,49.0,53.0,57.0,12.0,1504.2,237.6,-0.1,0.3,2192.773,13.16,0.034,101.6
11,2022-05-01T00:00:00,2200.0,42.79,6.0312,0.028,-0.012,0.011,52.0,52.0,55.0,12.0,1504.2,239.1,-0.5,0.2,2192.71,13.16,0.03,113.2
11,2022-05-01T00:30:00,2200.0,42.79,6.0312,0.026,-0.01,0.002,51.0,54.0,54.0,12.0,1504.2,227.2,-0.5,0.3,2192.716,13.16,0.027,111.0
11,2022-05-01T01:00:00,2200.0,42.79,6.0312,0.01,-0.004,0.006,50.0,53.0,56.0,12.0,1504.2,221.5,0.0,0.0,2192.707,13.16,0.01,111.8
11,2022-05-01T01:30:00,2200.0,42.79,6.0312,0.029,0.0,0.011,50.0,55.0,54.0,12.0,1504.2,216.8,-0.1,0.0,2192.68,13.16,0.028,90.0
11,2022-05-01T02:00:00,2200.0,42.79,6.0312,0.022,-0.011,0.024,49.0,52.0,53.0,12.0,1504.2,218.1,-0.4,0.2,2192.663,13.16,0.024,116.6
11,2022-05-01T02:30:00,2200.0,42.79,6.0312,0.021,-0.007,0.01,50.0,52.0,54.0,11.9,1504.2,214.2,-0.1,0.2,2192.658,13.16,0.022,108.4
11,2022-05-01T03:00:00,2200.0,42.79,6.0312,0.018,-0.004,0.025,51.0,54.0,55.0,12.0,1504.2,205.6,-0.3,0.0,2192.714,13.16,0.018,102.5
11,2022-05-01T03:30:00,2200.0,42.79,6.0312,0.025,0.0,0.011,50.0,53.0,55.0,11.9,1504.2,198.2,-0.4,0.3,2192.686,13.16,0.025,90.0
11,2022-05-01T04:00:00,2200.0,42.79,6.0312,0.028,0.005,-0.002,51.0,56.0,55.0,11.9,1504.2,192.8,-0.1,0.1,2192.717,13.16,0.028,79.9
11,2022-05-01T04:30:00,2200.0,42.79,6.0312,0.019,0.006,0.007,51.0,51.0,52.0,12.0,1504.2,212.0,-0.1,-0.1,2192.774,13.16,0.019,72.5
11,2022-05-01T05:00:00,2200.0,42.79,6.0312,0.028,-0.005,0.015,50.0,49.0,54.0,11.9,1504.2,218.6,0.1,0.1,2192.808,13.16,0.028,100.1
11,2022-05-01T05:30:00,2200.0,42.79,6.0312,0.019,0.001,-0.004,50.0,53.0,54.0,11.9,1504.2,214.7,-0.2,0.2,2192.814,13.16,0.019,87.0
11,2022-05-01T06:00:00,2200.0,42.79,6.0312,0.033,-0.006,0.0,51.0,52.0,55.0,12.0,1504.2,217.2,-0.1,0.3,2192.845,13.16,0.033,100.3
11,2022-05-01T06:30:00,2200.0,42.79,6.0312,0.016,0.003,-0.007,51.0,54.0,56.0,11.9,1504.2,217.7,-0.2,0.2,2192.831,13.16,0.016,79.4
11,2022-05-01T07:00:00,2200.0,42.79,6.0312,0.024,0.0,0.003,51.0,56.0,56.0,12.0,1504.2,221.7,0.0,-0.1,2192.872,13.16,0.024,90.0
11,2022-05-01T07:30:00,2200.0,42.79,6.0312,0.023,0.001,0.001,51.0,56.0,54.0,11.9,1504.2,226.4,-0.3,0.0,2192.844,13.16,0.023,87.5
11,2022-05-01T08:00:00,2200.0,42.79,6.0312,0.02,0.005,0.008,51.0,52.0,51.0,11.9,1504.2,229.8,-0.1,0.0,2192.872,13.16,0.02,76.0
11,2022-05-01T08:30:00,2200.0,42.79,6.0312,0.027,-0.005,0.014,55.0,53.0,56.0,11.9,1504.2,231.0,-0.5,0.4,2192.823,13.16,0.027,100.5
11,2022-05-01T09:00:00,2200.0,42.79,6.0312,0.029,0.001,0.004,51.0,55.0,55.0,11.9,1504.2,233.7,-0.2,0.1,2192.858,13.16,0.029,88.0
11,2022-05-01T09:30:00,2200.0,42.79,6.0312,0.025,0.004,0.0,53.0,54.0,56.0,12.0,1504.2,237.8,-0.4,0.0,2192.77,13.16,0.025,80.9
11,2022-05-01T10:00:00,2200.0,42.79,6.0312,0.022,-0.003,0.018,50.0,54.0,58.0,11.9,1504.2,237.3,-0.3,0.1,2192.784,13.16,0.022,97.8
11,2022-05-01T10:30:00,2200.0,42.79,6.0312,0.032,0.005,0.002,52.0,55.0,59.0,11.9,1504.2,239.7,-0.5,0.4,2192.753,13.16,0.032,81.1
11,2022-05-01T11:00:00,2200.0,42.79,6.0312,0.022,-0.005,0.001,52.0,58.0,55.0,11.9,1504.2,239.2,-0.3,0.1,2192.76,13.16,0.022,102.8
11,2022-05-01T11:30:00,2200.0,42.79,6.0312,0.031,-0.004,0.002,52.0,56.0,54.0,12.0,1504.2,241.3,-0.6,0.4,2192.735,13.16,0.031,97.3
11,2022-05-01T12:00:00,2200.0,42.79,6.0312,0.027,0.0,0.019,51.0,53.0,57.0,11.9,1504.2,242.3,-0.4,0.3,2192.725,13.16,0.026,90.0
11,2022-05-01T12:30:00,2200.0,42.79,6.0312,0.024,0.002,0.001,50.0,53.0,56.0,12.0,1504.2,244.6,-0.5,0.0,2192.677,13.16,0.024,85.2
11,2022-05-01T13:00:00,2200.0,42.79,6.0312,0.02,-0.01,0.015,50.0,55.0,53.0,11.9,1504.2,245.7,-0.3,0.4,2192.67,13.16,0.022,116.6
11,2022-05-01T13:30:00,2200.0,42.79,6.0312,0.022,0.004,0.007,53.0,55.0,55.0,11.9,1504.2,249.0,-0.3,0.1,2192.633,13.16,0.022,79.7
11,2022-05-01T14:00:00,2200.0,42.79,6.0312,0.031,-0.006,0.006,52.0,55.0,57.0,11.9,1504.2,250.4,-0.6,0.3,2192.7,13.16,0.031,101.0
11,2022-05-01T14:30:00,2200.0,42.79,6.0312,0.039,-0.002,0.013,51.0,52.0,53.0,11.9,1504.2,251.3,-0.5,0.0,2192.635,13.16,0.039,92.9
11,2022-05-01T15:00:00,2200.0,42.79,6.0312,0.036,-0.004,-0.001,51.0,55.0,54.0,12.0,1504.2,252.9,-0.2,0.1,2192.66,13.16,0.036,96.3
11,2022-05-01T15:30:00,2200.0,42.79,6.0312,0.027,-0.01,0.006,51.0,56.0,53.0,12.0,1504.2,252.0,-0.2,0.1,2192.674,13.16,0.028,110.3
11,2022-05-01T16:00:00,2200.0,42.79,6.0312,0.029,-0.01,-0.001,49.0,54.0,52.0,12.0,1504.2,253.9,-0.6,0.0,2192.739,13.16,0.03,109.0
11,2022-05-01T16:30:00,2200.0,42.79,6.0312,0.037,-0.007,0.005,48.0,55.0,56.0,11.9,1504.2,258.3,-0.2,0.0,2192.708,13.16,0.037,100.7
11,2022-05-01T17:00:00,2200.0,42.79,6.0312,0.022,-0.005,0.006,50.0,51.0,52.0,11.9,1504.2,257.0,-0.5,0.3,2192.749,13.16,0.022,102.8
11,2022-05-01T17:30:00,2200.0,42.79,6.0312,0.021,0.011,0.02,51.0,51.0,52.0,11.9,1504.2,252.7,-0.4,0.0,2192.751,13.16,0.023,62.4
11,2022-05-01T18:00:00,2200.0,42.79,6.0312,0.034,-0.004,0.008,50.0,53.0,54.0,11.9,1504.2,251.7,-0.1,0.0,2192.782,13.16,0.034,96.7
11,2022-05-01T18:30:00,2200.0,42.79,6.0312,0.027,0.0,0.002,50.0,53.0,55.0,11.9,1504.2,250.7,-0.2,0.0,2192.795,13.16,0.026,90.0
11,2022-05-01T19:00:00,2200.0,42.79,6.0312,0.025,-0.008,0.007,49.0,52.0,54.0,11.9,1504.2,249.8,-0.1,0.0,2192.867,13.16,0.026,107.7
11,2022-05-01T19:30:00,2200.0,42.79,6.0312,0.027,-0.001,-0.012,49.0,52.0,53.0,12.0,1504.2,245.7,-0.4,0.3,2192.885,13.16,0.027,92.1
11,2022-05-01T20:00:00,2200.0,42.79,6.0312,0.015,-0.005,0.02,48.0,55.0,54.0,11.9,1504.2,241.3,-0.5,0.0,2192.84,13.16,0.015,108.4
11,2022-05-01T20:30:00,2200.0,42.79,6.0312,0.019,-0.011,0.004,49.0,55.0,55.0,12.0,1504.2,235.2,-0.3,0.2,2192.816,13.16,0.021,120.1
